JCSAT 15

operational
NORAD ID: 41903 Int'l Des: 2016-082 Owner: SKPJ Country: J
HEOCIRCULARGSOGEO

About JCSAT 15

Description loading...

Live Position

Loading 3D Globe...

Upcoming Passes

Altitude History

Altitude vs Time

uPlot chart will show altitude changes over time

Two-Line Element Set

1 41903U 16082A 26022.45573351 -.00000336 00000-0 00000+0 0 9991
2 41903 0.0189 63.0738 0000571 248.4339 84.4209 1.00270491 33298
Epoch: Jan 22, 2026 • Age: 19 hours

Current Status

Altitude 35784.2 km
Velocity 3.07 km/s
Sub-Earth Point -0.04°S, 110.07°E
Launch Date Dec 21, 2016
Age 9 years
Type other

Technical Details

Classification Payload
Mass 3408.00 kg
Dry Mass 2000.00 kg
Total Mass 3408.00 kg
Length 5.20 m
Diameter 2.50 m
Span 26.10 m
Shape Box+2 panels
Manufacturer SSL
Bus Type LS-1300
Phase Status In Orbit
Owner/State SKPJ/J

Large Constellations

Loading constellations...